Fresno, CA

4:56 PM PDT on September 30, 2016 (GMT -0700)
Fresno Yosemite International

Weather History for KFAT - June, 2013

Change the Weather History Date:

Sunday, June 2, 2013

  Actual Average Record
Temperature  
Mean Temperature 86 °F 74 °F  
Max Temperature 103 °F 89 °F 106 °F (1960)
Min Temperature 69 °F 60 °F 45 °F (1902)
Degree Days  
Heating Degree Days 0    
Month to date heating degree days 0  
Since 1 June heating degree days 0  
Since 1 July heating degree days 1745  
Cooling Degree Days 21    
Month to date cooling degree days 39  
Year to date cooling degree days 446  
Since 1 June cooling degree days 39  
Growing Degree Days 36 (Base 50)    
Moisture  
Dew Point 50 °F    
Average Humidity 35    
Maximum Humidity 57    
Minimum Humidity 13    
Precipitation  
Precipitation 0.00 in 0.01 in 0.33 in (1985)
Month to date precipitation 0.00 0.02  
Year to date precipitation 2.28 7.65  
Since 1 July precipitation 5.67  
Snow  
Snow 0.00 in - - ()
Month to date snowfall 0.0  
Since 1 June snowfall 0.0  
Since 1 July snowfall 0.0  
Snow Depth 0.00 in    
Sea Level Pressure  
Sea Level Pressure 29.65 in    
Wind  
Wind Speed 7 mph (NNW)    
Max Wind Speed 16 mph    
Max Gust Speed 20 mph    
Visibility 10 miles    
Events      
T = Trace of Precipitation, MM = Missing Value Source: NWS Daily Summary

Daily Weather History Graph

Daily Weather History Graph

Search for Another Location

Airport or City:

Trip Planner

Search our weather history database for the weather conditions in past years. The results will help you decide how hot, cold, wet, or windy it might be!

Date:

Astronomy

Jun. 02, 2013 Rise Set
Actual Time 5:40 AM PDT 8:13 PM PDT
Civil Twilight 5:10 AM PDT 8:43 PM PDT
Nautical Twilight 4:33 AM PDT 9:20 PM PDT
Astronomical Twilight 3:51 AM PDT 10:02 PM PDT
Moon 2:02 AM PDT (6/2) 2:56 PM PDT (6/2)
Length of Visible Light 15h 32m
Length of Day
14h 32m
Waning Crescent, 30% of the Moon is Illuminated
Jun 2
Waning Crescent
Jun 8
New
Jun 16
First Quarter
Jun 23
Full
Jun 29
Last Quarter

Hourly Weather History & Observations

Time (PDT) Temp. Dew Point Humidity Pressure Visibility Wind Dir Wind Speed Gust Speed Precip Events Conditions
12:53 AM 79.0 °F 52.0 °F 39% 29.73 in 10.0 mi Calm Calm - N/A   Clear
1:53 AM 73.0 °F 55.0 °F 53% 29.72 in 10.0 mi ESE 3.5 mph - N/A   Clear
2:53 AM 73.9 °F 55.9 °F 53% 29.70 in 10.0 mi East 3.5 mph - N/A   Partly Cloudy
3:53 AM 73.0 °F 55.0 °F 53% 29.69 in 10.0 mi SE 5.8 mph - N/A   Partly Cloudy
4:53 AM 71.1 °F 55.0 °F 57% 29.68 in 10.0 mi SE 3.5 mph - N/A   Partly Cloudy
5:53 AM 72.0 °F 54.0 °F 53% 29.69 in 10.0 mi Calm Calm - N/A   Partly Cloudy
6:53 AM 73.0 °F 54.0 °F 51% 29.70 in 10.0 mi Calm Calm - N/A   Partly Cloudy
7:53 AM 78.1 °F 50.0 °F 37% 29.70 in 10.0 mi East 4.6 mph - N/A   Clear
8:53 AM 82.9 °F 51.1 °F 33% 29.70 in 10.0 mi East 5.8 mph - N/A   Partly Cloudy
9:53 AM 87.1 °F 48.9 °F 27% 29.70 in 10.0 mi East 5.8 mph - N/A   Partly Cloudy
10:53 AM 90.0 °F 50.0 °F 25% 29.69 in 10.0 mi Variable 4.6 mph - N/A   Scattered Clouds
11:53 AM 91.9 °F 51.1 °F 25% 29.68 in 10.0 mi South 5.8 mph - N/A   Partly Cloudy
12:53 PM 96.1 °F 48.9 °F 20% 29.66 in 10.0 mi Variable 3.5 mph - N/A   Partly Cloudy
1:53 PM 99.0 °F 46.0 °F 16% 29.64 in 10.0 mi SSE 4.6 mph - N/A   Clear
2:53 PM 100.9 °F 44.1 °F 14% 29.62 in 10.0 mi West 5.8 mph - N/A   Partly Cloudy
3:53 PM 102.0 °F 43.0 °F 13% 29.60 in 10.0 mi Calm Calm - N/A   Partly Cloudy
4:53 PM 102.0 °F 48.9 °F 17% 29.58 in 10.0 mi NW 12.7 mph - N/A   Partly Cloudy
5:53 PM 100.0 °F 46.9 °F 16% 29.57 in 10.0 mi NW 10.4 mph - N/A   Partly Cloudy
6:53 PM 98.1 °F 46.9 °F 18% 29.57 in 10.0 mi WNW 12.7 mph - N/A   Partly Cloudy
7:53 PM 95.0 °F 48.0 °F 20% 29.58 in 10.0 mi NW 12.7 mph - N/A   Clear
8:53 PM 89.1 °F 51.1 °F 27% 29.60 in 10.0 mi WNW 12.7 mph - N/A   Clear
9:53 PM 84.9 °F 48.9 °F 29% 29.62 in 10.0 mi NW 12.7 mph - N/A   Clear
10:53 PM 80.1 °F 48.9 °F 34% 29.63 in 10.0 mi NW 11.5 mph - N/A   Clear
11:53 PM 75.9 °F 50.0 °F 40% 29.63 in 10.0 mi NW 11.5 mph - N/A   Clear